Location: Six Mile Lake
(44.9000°N, 79.7170°W)
Time: 09:18:21
(UTC-04:00)

AO-92 - Pass Details

Date: 07 July 2022
Orbit: 470 x 481 km, 97.4° (Epoch: 07 August)

Event Time Altitude Azimuth Distance (km) Brightness Sun altitude
Exits shadow 22:26:59 14° 107° (ESE) 1,435 ? -11.5°
Maximum altitude 22:28:55 21° 67° (ENE) 1,150 ? -11.7°
Drops below altitude 10° 22:31:38 10° 18° (NNE) 1,671 ? -12.0°
Sets 22:34:04 0° 2° (N) 2,558 ? -12.3°
